| time (UTC) | temp C | wind direction | speed KPH | gust KPH | rain 1hr cm | rain 24hr cm | rain mn cm | humidity % | barometer mb |
| 20260505070504 | 12 | 75 | 1.6 | 8.0 | 0.61 | 0.86 | 0.86 | 83 | 1005.5 |
| 20260505070004 | 12 | 35 | 0.0 | 8.0 | 0.79 | 0.86 | 0.86 | 84 | 1005.5 |
| 20260505065504 | 12 | 30 | 1.6 | 8.0 | 0.84 | 0.84 | 0.84 | 83 | 1005.0 |
| 20260505065004 | 12 | 66 | 1.6 | 3.2 | 0.84 | 0.84 | 0.84 | 83 | 1005.2 |
| 20260505064505 | 13 | 94 | 0.0 | 4.8 | 0.81 | 0.81 | 0.81 | 83 | 1005.5 |
| 20260505064005 | 13 | 187 | 1.6 | 4.8 | 0.79 | 0.79 | 0.79 | 82 | 1005.4 |
| 20260505063505 | 13 | 196 | 1.6 | 4.8 | 0.76 | 0.76 | 0.76 | 83 | 1005.6 |
| 20260505063004 | 13 | 92 | 1.6 | 3.2 | 0.71 | 0.71 | 0.71 | 83 | 1004.7 |
| 20260505062504 | 13 | 78 | 0.0 | 3.2 | 0.64 | 0.64 | 0.64 | 83 | 1004.6 |
| 20260505061505 | 14 | 61 | 0.0 | 8.0 | 0.46 | 0.46 | 0.46 | 80 | 1004.7 |
| 20260505061005 | 14 | 61 | 1.6 | 9.7 | 0.36 | 0.36 | 0.36 | 77 | 1004.5 |
| 20260505060505 | 15 | 81 | 1.6 | 16.1 | 0.25 | 0.25 | 0.25 | 72 | 1004.1 |
| 20260505060005 | 17 | 50 | 3.2 | 16.1 | 0.08 | 0.08 | 0.08 | 66 | 1003.8 |
| 20260505055504 | 17 | 112 | 3.2 | 24.1 | 0.00 | 0.00 | 0.00 | 58 | 1003.4 |
| 20260505055004 | 17 | 84 | 6.4 | 24.1 | 0.00 | 0.00 | 0.00 | 54 | 1003.1 |
| 20260505054505 | 17 | 35 | 4.8 | 24.1 | 0.00 | 0.00 | 0.00 | 54 | 1003.0 |
| 20260505054004 | 18 | 85 | 4.8 | 22.5 | 0.00 | 0.00 | 0.00 | 52 | 1002.9 |
| 20260505053004 | 20 | 41 | 4.8 | 12.9 | 0.00 | 0.00 | 0.00 | 48 | 1003.0 |
| 20260505052504 | 20 | 7 | 3.2 | 16.1 | 0.00 | 0.00 | 0.00 | 48 | 1002.9 |
| 20260505052004 | 20 | 68 | 1.6 | 19.3 | 0.00 | 0.00 | 0.00 | 51 | 1002.9 |
| 20260505051504 | 20 | 15 | 3.2 | 19.3 | 0.00 | 0.00 | 0.00 | 58 | 1002.3 |
| 20260505051004 | 20 | 316 | 1.6 | 11.3 | 0.00 | 0.00 | 0.00 | 71 | 1002.3 |
| 20260505050504 | 20 | 322 | 3.2 | 8.0 | 0.00 | 0.00 | 0.00 | 71 | 1002.0 |
| 20260505041504 | 21 | 203 | 1.6 | 4.8 | 0.00 | 0.00 | 0.00 | 69 | 1001.5 |
| 20260505040505 | 21 | 196 | 1.6 | 4.8 | 0.00 | 0.00 | 0.00 | 70 | 1001.7 |
| 20260505040005 | 21 | 205 | 1.6 | 4.8 | 0.00 | 0.00 | 0.00 | 70 | 1001.7 |
| 20260505035504 | 21 | 218 | 1.6 | 9.7 | 0.00 | 0.00 | 0.00 | 70 | 1001.7 |
| 20260505035004 | 21 | 191 | 3.2 | 9.7 | 0.00 | 0.00 | 0.00 | 70 | 1001.7 |
| 20260505034504 | 21 | 188 | 1.6 | 4.8 | 0.00 | 0.00 | 0.00 | 70 | 1001.7 |
| 20260505034005 | 21 | 239 | 1.6 | 4.8 | 0.00 | 0.00 | 0.00 | 70 | 1001.8 |
| 20260505032504 | 21 | 241 | 1.6 | 4.8 | 0.00 | 0.00 | 0.00 | 69 | 1001.7 |
| 20260505032004 | 21 | 239 | 3.2 | 4.8 | 0.00 | 0.00 | 0.00 | 69 | 1001.7 |
| 20260505031504 | 22 | 249 | 3.2 | 4.8 | 0.00 | 0.00 | 0.00 | 68 | 1001.6 |
| 20260505031004 | 22 | 249 | 1.6 | 4.8 | 0.00 | 0.00 | 0.00 | 68 | 1001.6 |
| 20260505030504 | 22 | 249 | 3.2 | 4.8 | 0.00 | 0.00 | 0.00 | 67 | 1001.5 |
| 20260505030004 | 22 | 249 | 1.6 | 4.8 | 0.00 | 0.00 | 0.00 | 66 | 1001.5 |
| 20260505025504 | 22 | 249 | 1.6 | 4.8 | 0.00 | 0.00 | 0.00 | 65 | 1001.5 |
| 20260505025004 | 22 | 249 | 1.6 | 4.8 | 0.00 | 0.00 | 0.00 | 65 | 1001.4 |
| 20260505024504 | 22 | 249 | 1.6 | 4.8 | 0.00 | 0.00 | 0.00 | 64 | 1001.3 |
| 20260505024004 | 22 | 249 | 1.6 | 4.8 | 0.00 | 0.00 | 0.00 | 63 | 1001.3 |
| 20260505023504 | 23 | 249 | 1.6 | 4.8 | 0.00 | 0.00 | 0.00 | 62 | 1001.1 |
| 20260505023004 | 23 | 249 | 1.6 | 4.8 | 0.00 | 0.00 | 0.00 | 61 | 1001.0 |
| 20260505022504 | 23 | 249 | 1.6 | 4.8 | 0.00 | 0.00 | 0.00 | 61 | 1001.0 |
| 20260505022004 | 23 | 249 | 1.6 | 3.2 | 0.00 | 0.00 | 0.00 | 60 | 1001.0 |
| 20260505021504 | 23 | 249 | 1.6 | 4.8 | 0.00 | 0.00 | 0.00 | 59 | 1000.9 |
| 20260505021005 | 23 | 249 | 1.6 | 4.8 | 0.00 | 0.00 | 0.00 | 58 | 1000.9 |
| 20260505020004 | 24 | 249 | 3.2 | 4.8 | 0.00 | 0.00 | 0.00 | 57 | 1000.8 |
| 20260505015504 | 24 | 249 | 3.2 | 4.8 | 0.00 | 0.00 | 0.00 | 57 | 1000.7 |
| 20260505015004 | 24 | 251 | 1.6 | 4.8 | 0.00 | 0.00 | 0.00 | 57 | 1000.7 |
| 20260505014004 | 24 | 251 | 3.2 | 4.8 | 0.00 | 0.00 | 0.00 | 56 | 1000.6 |
| 20260505013504 | 24 | 248 | 1.6 | 4.8 | 0.00 | 0.00 | 0.00 | 55 | 1000.5 |
| 20260505013004 | 25 | 248 | 1.6 | 8.0 | 0.00 | 0.00 | 0.00 | 55 | 1000.4 |
| 20260505012505 | 25 | 248 | 1.6 | 8.0 | 0.00 | 0.00 | 0.00 | 54 | 1000.4 |
| 20260505012004 | 25 | 246 | 3.2 | 4.8 | 0.00 | 0.00 | 0.00 | 54 | 1000.3 |
| 20260505011511 | 25 | 241 | 3.2 | 8.0 | 0.00 | 0.00 | 0.00 | 53 | 1000.2 |
| 20260505011004 | 25 | 247 | 3.2 | 14.5 | 0.00 | 0.00 | 0.00 | 53 | 1000.2 |
| 20260505010505 | 25 | 247 | 3.2 | 14.5 | 0.00 | 0.00 | 0.00 | 52 | 1000.1 |
| 20260505010005 | 25 | 246 | 4.8 | 8.0 | 0.00 | 0.00 | 0.00 | 51 | 1000.0 |
| 20260505005506 | 26 | 246 | 3.2 | 8.0 | 0.00 | 0.00 | 0.00 | 50 | 999.9 |
| 20260505005006 | 26 | 250 | 0.0 | 4.8 | 0.00 | 0.00 | 0.00 | 50 | 999.9 |
| 20260505004506 | 26 | 250 | 0.0 | 4.8 | 0.00 | 0.00 | 0.00 | 49 | 999.8 |
| 20260505004006 | 26 | 249 | 1.6 | 4.8 | 0.00 | 0.00 | 0.00 | 48 | 999.9 |
| 20260505003506 | 26 | 249 | 1.6 | 4.8 | 0.00 | 0.00 | 0.00 | 49 | 999.8 |
| 20260505003006 | 26 | 249 | 3.2 | 4.8 | 0.00 | 0.00 | 0.00 | 48 | 999.7 |
| 20260505002506 | 26 | 242 | 1.6 | 4.8 | 0.00 | 0.00 | 0.00 | 48 | 999.6 |
| 20260505002006 | 26 | 242 | 3.2 | 4.8 | 0.00 | 0.00 | 0.00 | 47 | 999.6 |
| 20260505001506 | 26 | 242 | 0.0 | 4.8 | 0.00 | 0.00 | 0.00 | 49 | 999.7 |
| 20260505001006 | 26 | 242 | 1.6 | 4.8 | 0.00 | 0.00 | 0.00 | 48 | 999.7 |
| 20260505000506 | 26 | 240 | 3.2 | 4.8 | 0.00 | 0.00 | 0.00 | 48 | 999.7 |
| 20260505000005 | 26 | 240 | 3.2 | 9.7 | 0.00 | 0.00 | 0.00 | 48 | 999.8 |
| 20260504235005 | 26 | 236 | 3.2 | 9.7 | 0.00 | 0.00 | 0.00 | 48 | 999.6 |
| 20260504234505 | 26 | 252 | 3.2 | 9.7 | 0.00 | 0.00 | 0.00 | 47 | 999.7 |
| 20260504234006 | 26 | 252 | 3.2 | 12.9 | 0.00 | 0.00 | 0.00 | 47 | 999.7 |
| 20260504233506 | 26 | 255 | 3.2 | 12.9 | 0.00 | 0.00 | 0.00 | 47 | 999.7 |
| 20260504233006 | 27 | 223 | 4.8 | 19.3 | 0.00 | 0.00 | 0.00 | 46 | 999.7 |
| 20260504232505 | 27 | 241 | 4.8 | 19.3 | 0.00 | 0.00 | 0.00 | 45 | 999.7 |
| 20260504232006 | 27 | 234 | 4.8 | 19.3 | 0.00 | 0.00 | 0.00 | 44 | 999.8 |
| 20260504231506 | 27 | 230 | 6.4 | 16.1 | 0.00 | 0.00 | 0.00 | 44 | 999.8 |
| 20260504230506 | 27 | 243 | 8.0 | 19.3 | 0.00 | 0.00 | 0.00 | 44 | 999.7 |
| 20260504225505 | 27 | 319 | 8.0 | 19.3 | 0.00 | 0.00 | 0.00 | 43 | 999.6 |
| 20260504225006 | 27 | 237 | 4.8 | 19.3 | 0.00 | 0.00 | 0.00 | 44 | 999.7 |
| 20260504224505 | 27 | 237 | 6.4 | 19.3 | 0.00 | 0.00 | 0.00 | 43 | 999.7 |
| 20260504223506 | 27 | 286 | 4.8 | 14.5 | 0.00 | 0.00 | 0.00 | 43 | 999.7 |
| 20260504222506 | 27 | 281 | 4.8 | 19.3 | 0.00 | 0.00 | 0.00 | 45 | 999.7 |
| 20260504221505 | 27 | 235 | 4.8 | 11.3 | 0.00 | 0.00 | 0.00 | 45 | 999.8 |
| 20260504220506 | 26 | 243 | 4.8 | 16.1 | 0.00 | 0.00 | 0.00 | 46 | 999.9 |
| 20260504215506 | 26 | 204 | 4.8 | 16.1 | 0.00 | 0.00 | 0.00 | 44 | 999.9 |
| 20260504215006 | 26 | 270 | 8.0 | 16.1 | 0.00 | 0.00 | 0.00 | 46 | 1000.0 |
| 20260504214505 | 26 | 307 | 6.4 | 19.3 | 0.00 | 0.00 | 0.00 | 45 | 1000.2 |
| 20260504213505 | 26 | 253 | 4.8 | 19.3 | 0.00 | 0.00 | 0.00 | 45 | 1000.1 |
| 20260504213006 | 26 | 278 | 8.0 | 19.3 | 0.00 | 0.00 | 0.00 | 45 | 1000.1 |
| 20260504212505 | 26 | 244 | 4.8 | 19.3 | 0.00 | 0.00 | 0.00 | 45 | 1000.2 |
| 20260504211506 | 26 | 225 | 4.8 | 19.3 | 0.00 | 0.00 | 0.00 | 44 | 1000.2 |
| 20260504211006 | 26 | 223 | 6.4 | 22.5 | 0.00 | 0.00 | 0.00 | 44 | 1000.3 |
| 20260504210506 | 26 | 283 | 9.7 | 22.5 | 0.00 | 0.00 | 0.00 | 44 | 1000.3 |
| 20260504210006 | 26 | 236 | 6.4 | 20.9 | 0.00 | 0.00 | 0.00 | 45 | 1000.3 |
| 20260504205505 | 26 | 222 | 9.7 | 20.9 | 0.00 | 0.00 | 0.00 | 43 | 1000.4 |
| 20260504205005 | 27 | 279 | 8.0 | 22.5 | 0.00 | 0.00 | 0.00 | 42 | 1000.5 |
| 20260504204005 | 27 | 298 | 6.4 | 19.3 | 0.00 | 0.00 | 0.00 | 42 | 1000.6 |
| 20260504203506 | 27 | 214 | 8.0 | 20.9 | 0.00 | 0.00 | 0.00 | 41 | 1000.6 |
| 20260504203005 | 27 | 234 | 8.0 | 32.2 | 0.00 | 0.00 | 0.00 | 42 | 1000.7 |
| 20260504202505 | 27 | 261 | 8.0 | 32.2 | 0.00 | 0.00 | 0.00 | 41 | 1000.7 |
| 20260504201506 | 27 | 195 | 6.4 | 20.9 | 0.00 | 0.00 | 0.00 | 44 | 1000.6 |
| 20260504201005 | 27 | 244 | 8.0 | 24.1 | 0.00 | 0.00 | 0.00 | 42 | 1000.6 |
| 20260504200005 | 27 | 307 | 6.4 | 22.5 | 0.00 | 0.00 | 0.00 | 45 | 1000.7 |
| 20260504195006 | 26 | 231 | 9.7 | 27.4 | 0.00 | 0.00 | 0.00 | 43 | 1000.8 |
| 20260504194506 | 26 | 305 | 11.3 | 27.4 | 0.00 | 0.00 | 0.00 | 43 | 1000.8 |
| 20260504194005 | 27 | 237 | 9.7 | 19.3 | 0.00 | 0.00 | 0.00 | 43 | 1000.8 |
| 20260504193506 | 27 | 312 | 6.4 | 19.3 | 0.00 | 0.00 | 0.00 | 44 | 1000.8 |
| 20260504192006 | 26 | 209 | 8.0 | 19.3 | 0.00 | 0.00 | 0.00 | 44 | 1000.8 |
| 20260504191505 | 26 | 219 | 4.8 | 16.1 | 0.00 | 0.00 | 0.00 | 44 | 1000.8 |
| 20260504190506 | 26 | 237 | 4.8 | 16.1 | 0.00 | 0.00 | 0.00 | 45 | 1000.8 |
| 20260504190005 | 26 | 202 | 6.4 | 16.1 | 0.00 | 0.00 | 0.00 | 45 | 1000.8 |
| 20260504184505 | 25 | 237 | 6.4 | 19.3 | 0.00 | 0.00 | 0.00 | 45 | 1000.9 |
| 20260504184005 | 25 | 252 | 6.4 | 19.3 | 0.00 | 0.00 | 0.00 | 46 | 1001.0 |
| 20260504183505 | 25 | 229 | 6.4 | 19.3 | 0.00 | 0.00 | 0.00 | 45 | 1001.0 |
| 20260504183005 | 25 | 233 | 6.4 | 22.5 | 0.00 | 0.00 | 0.00 | 46 | 1001.2 |
| 20260504182505 | 25 | 249 | 8.0 | 22.5 | 0.00 | 0.00 | 0.00 | 45 | 1001.3 |
| 20260504182005 | 25 | 299 | 6.4 | 22.5 | 0.00 | 0.00 | 0.00 | 46 | 1001.4 |
| 20260504181505 | 25 | 222 | 6.4 | 22.5 | 0.00 | 0.00 | 0.00 | 45 | 1001.5 |
| 20260504181006 | 25 | 255 | 8.0 | 22.5 | 0.00 | 0.00 | 0.00 | 46 | 1001.5 |
| 20260504180506 | 25 | 225 | 9.7 | 20.9 | 0.00 | 0.00 | 0.00 | 46 | 1001.5 |
| 20260504180005 | 24 | 235 | 8.0 | 22.5 | 0.00 | 0.00 | 0.00 | 48 | 1001.6 |
| 20260504175007 | 24 | 292 | 4.8 | 19.3 | 0.00 | 0.00 | 0.00 | 48 | 1001.6 |
| 20260504174505 | 24 | 224 | 4.8 | 20.9 | 0.00 | 0.00 | 0.00 | 48 | 1001.7 |
| 20260504174006 | 24 | 308 | 4.8 | 20.9 | 0.00 | 0.00 | 0.00 | 47 | 1001.7 |
| 20260504173506 | 23 | 274 | 8.0 | 20.9 | 0.00 | 0.00 | 0.00 | 47 | 1001.8 |
| 20260504173006 | 23 | 233 | 9.7 | 20.9 | 0.00 | 0.00 | 0.00 | 48 | 1001.7 |
| 20260504172505 | 23 | 270 | 8.0 | 19.3 | 0.00 | 0.00 | 0.00 | 47 | 1001.7 |
| 20260504171505 | 23 | 274 | 4.8 | 19.3 | 0.00 | 0.00 | 0.00 | 51 | 1001.8 |
| 20260504170506 | 23 | 225 | 6.4 | 22.5 | 0.00 | 0.00 | 0.00 | 49 | 1001.9 |
| 20260504151006 | 20 | 272 | 6.4 | 25.7 | 0.00 | 0.00 | 0.00 | 54 | 1002.2 |
| 20260504150506 | 20 | 240 | 8.0 | 24.1 | 0.00 | 0.00 | 0.00 | 55 | 1002.2 |
| 20260504140506 | 19 | 247 | 4.8 | 20.9 | 0.00 | 0.00 | 0.00 | 55 | 1002.2 |
| 20260504130505 | 17 | 225 | 4.8 | 19.3 | 0.00 | 0.00 | 0.00 | 58 | 1002.1 |
| 20260504100505 | 18 | 228 | 3.2 | 14.5 | 0.00 | 0.00 | 0.00 | 51 | 1002.6 |
| 20260504081505 | 19 | 211 | 3.2 | 11.3 | 0.00 | 0.00 | 0.00 | 49 | 1003.7 |
| 20260504081005 | 19 | 225 | 3.2 | 11.3 | 0.00 | 0.00 | 0.00 | 49 | 1003.7 |
| 20260504080506 | 19 | 223 | 3.2 | 11.3 | 0.00 | 0.00 | 0.00 | 50 | 1003.8 |